STARLINK-36185, 67204

Orbit data source: Space-Track

STARLINK-36185, 67204 is a payload satellite owned by SpaceX/Seattle (US) in LEO that was launched on Wed, 17 Dec 2025 UTC via an FALCON 9 launch vehicle from the Air Force Western Test Range (AFWTR). Payload-class satellites include a variety of spacecraft equipped with specific instruments for various scientific and technological missions. These include communications satellites like Starlink; space stations such as the ISS; scientific satellites like the Hubble; Earth observation satellites from companies like Planet Labs, Umbra, and HawkEye 360; GPS; miniature CubeSats for education and research; and military/defense satellites.

Loading next visibility...
Identifier
67204, 2025-304N
Orbit
LEO
Country
Flag of USUS
Related business
Manufacturer
SpaceX/Seattle
Mission
Operational Commercial Communications
Bus & Motor
STARLINK V2MO, Unknown motor
Mass
575 kg wet, ~530 kg dry
Launch date (UTC)
2025-12-17 (6 months ago)
Launch vehicle
FALCON 9
Launch site
Air Force Western Test Range (AFWTR)
Object type
Payload
Rocket body
Debris
Shape & HBR
Box + 2 Pan, 17.7 m
Radar Cross Section
36.964 m², Large (>1 m²)

Expand to show TLE details & history
Last TLE update: 10 hours ago

TLE from 10 hours ago
0 STARLINK-36185
1 67204U 25304N   26171.41443110  .00001622  00000-0  14368-3 0  9994
2 67204  70.0010 275.3758 0003307 267.7466  92.3314 14.98334179 29278
Epoch: 2026-06-20T09:56Z
TLE epoch observation values (Epoch: 2026-06-20T09:56:46.847Z)
Latitude
-0.00004°
Longitude
-142.4488°
Altitude
574.561 km
Speed
7.574 km/s
True Right ascension
18h 21m 30s
True Declination
0° 00' 00"
Sunlit
Object was in full shadow at epoch
Visualization orbit readout
Latitude
Unknown
Longitude
Unknown
Altitude
Unknown
Speed
Unknown
Apparent Right ascension
Unknown
Apparent Declination
Unknown
Sunlit
N/A
Visualization observer readout
Local Sidereal Time
07:15:41
Azimuth
Unknown
Elevation
Unknown
Doppler factor
Unknown
Orbital elements
Apogee altitude
572.289 km
Perigee altitude
567.693 km
Semi-major axis
6,948.128 km
Eccentricity
0.00033
Inclination
70.001°
RAAN
275.3758°
Arg. of periapsis
267.7466°
True anomaly
92.36926°
Mean anomaly
92.3314°
Eccentric anomaly
92.35033°
Mean motion
3.7475 °/min
Orbital period
96.06 mins
BSTAR
0.00014368
Loading maneuver chart data...
Computing Atmospheric mass density...
Loading historical data...
Loading historical data...
Loading historical data...
Loading historical data...
Loading historical data...
Loading historical data...
Loading historical data...

Documentation

Showing up to 5 results
|